Flag for Canada Weather past 2 weeks in Red Deer, Alberta, Canada

Now
37 °F

Overcast.


Feels Like: 29 °F
Forecast: 24 / 44 °F
Wind: 13 mph from Northwest

Location: Red Deer

Current Time: Oct 2, 2014 at 12:53:30 AM

Latest Report: Oct 2, 2014 at 12:00 AM


Visibility: 15 mi

Pressure: 30.03 "Hg

Humidity: 75%

Dew point: 30 °F

Location of Red DeerLocation

Historic Weather in Red Deer — Graph

°F

Red Deer temperature yesterday

Maximum temperature yesterday: 59 °F (at 3:00 PM)
Minimum temperature yesterday: 30 °F (at 5:00 AM)
Average temperature yesterday: 42 °F

Past Weeks' High & Low Weather Summary

 TemperatureHumidityPressure
High81 °F (Sep 21, 4:00 PM)100% (Sep 17, 8:00 AM)30.46 "Hg (Sep 17, 8:00 AM)
Low30 °F (Oct 1, 5:00 AM)21% (Sep 22, 2:00 PM)29.57 "Hg (Sep 18, 6:00 AM)
Average54 °F70%29.91 "Hg
* Reported Sep 16 11:00 PM — Oct 1 11:00 PM, Red Deer, Weather by CustomWeather, © 2014

Note: Actual official high and low records may vary slightly from our data, if they occured in-between our weather recording intervals... More about our weather records

Advertising

Red Deer weather history for previous 24 hours

 ConditionsComfort  
Time TempWeatherWind HumidityBarometerVisibility
11:00 PM
Oct 1
37 °FOvercast.9 mph75%30.01 "Hg15 mi
10:00 PM37 °FPassing clouds.10 mph75%30.02 "Hg15 mi
9:00 PM39 °FPassing clouds.10 mph70%29.99 "Hg15 mi
8:00 PM41 °FPartly sunny.14 mph70%29.97 "Hg15 mi
7:00 PM43 °FPartly sunny.13 mph76%29.95 "Hg15 mi
6:00 PM43 °FPartly sunny.17 mph81%29.93 "Hg15 mi
5:00 PM45 °FSprinkles. Partly sunny.23 mph81%29.85 "Hg15 mi
4:52 PM45 °FSprinkles. Partly sunny.22 mph81%29.86 "Hg15 mi
4:00 PM55 °FPartly sunny.3 mph41%29.77 "Hg15 mi
3:00 PM59 °FPassing clouds.8 mph34%29.78 "Hg15 mi
2:00 PM57 °FPassing clouds.6 mph31%29.81 "Hg15 mi
1:00 PM55 °FPassing clouds.12 mph47%29.85 "Hg15 mi
12:00 PM52 °FPassing clouds.7 mph58%29.88 "Hg15 mi
11:00 AM46 °FPassing clouds.7 mph71%29.92 "Hg15 mi
10:00 AM41 °FPassing clouds.5 mph81%29.95 "Hg15 mi
9:00 AM36 °FPassing clouds.5 mph93%29.96 "Hg15 mi
8:00 AM30 °FPassing clouds.5 mph100%29.97 "Hg15 mi
7:00 AM30 °FClear.6 mph100%29.95 "Hg15 mi
6:00 AM32 °FClear.6 mph93%29.94 "Hg15 mi
5:00 AM30 °FClear.5 mph93%29.93 "Hg15 mi
4:00 AM36 °FClear.6 mph87%29.92 "Hg15 mi
3:00 AM39 °FClear.8 mph75%29.91 "Hg15 mi
2:00 AM39 °FClear.8 mph75%29.92 "Hg15 mi
1:00 AM39 °FClear.8 mph81%29.91 "Hg15 mi
12:00 AM41 °FClear.7 mph70%29.92 "Hg15 mi
Weather by CustomWeather, © 2014

See weather overviewHow to use our weather pages